Flag for Lithuania Weather past 2 weeks in Vilnius, Lithuania

Now
59 °F

Partly sunny.


Feels Like: 57 °F
Forecast: 42 / 66 °F
Wind: 10 mph from Northeast

Location: Vilnius Airport

Current Time: Sep 1, 2014 at 2:42:22 PM

Latest Report: Sep 1, 2014 at 2:20 PM


Visibility: N/A

Pressure: 30.07 "Hg

Humidity: 72%

Dew point: 50 °F

Location of VilniusLocation

Historic Weather in Vilnius — Graph

°F

Vilnius temperature yesterday

Maximum temperature yesterday: 59 °F (at 12:20 AM)
Minimum temperature yesterday: 48 °F (at 11:20 PM)
Average temperature yesterday: 55 °F

Past Weeks' High & Low Weather Summary

 TemperatureHumidityPressure
High72 °F (Aug 18, 1:50 PM)100% (Aug 18, 3:50 AM)30.09 "Hg (Aug 18, 3:50 AM)
Low41 °F (Aug 30, 4:20 AM)40% (Aug 20, 4:50 PM)29.59 "Hg (Aug 25, 2:50 AM)
Average56 °F81%29.86 "Hg
* Reported Aug 17 1:20 PM — Sep 1 1:20 PM, Vilnius, Weather by CustomWeather, © 2014

Note: Actual official high and low records may vary slightly from our data, if they occured in-between our weather recording intervals... More about our weather records

Advertising

Vilnius weather history for previous 24 hours

 ConditionsComfort  
Time TempWeatherWind HumidityBarometerVisibility
1:20 PM
Sep 1
57 °FPartly sunny.9 mph77%30.07 "HgN/A
12:50 PM59 °FPartly sunny.9 mph72%30.07 "HgN/A
12:20 PM57 °FPartly sunny.7 mph77%30.07 "HgN/A
11:50 AM55 °FPartly sunny.7 mph82%30.09 "HgN/A
11:20 AM54 °FBroken clouds.9 mph88%30.09 "HgN/A
10:50 AM54 °FPartly sunny.9 mph82%30.07 "Hg4 mi
10:20 AM52 °FPartly sunny.7 mph88%30.07 "Hg4 mi
9:50 AM52 °FFog.7 mph88%30.07 "Hg2 mi
9:20 AM50 °FFog.7 mph94%30.07 "Hg2 mi
8:50 AM50 °FFog.8 mph94%30.07 "Hg2 mi
8:20 AM50 °FFog.7 mph94%30.07 "Hg2 mi
7:50 AM48 °FFog.7 mph100%30.07 "Hg2 mi
7:20 AM48 °FFog.7 mph94%30.07 "Hg1 mi
6:50 AM48 °FFog.8 mph94%30.04 "Hg2 mi
6:20 AM48 °FFog.7 mph94%30.04 "Hg2 mi
5:50 AM50 °FPartly cloudy.6 mph88%30.04 "Hg4 mi
5:20 AM48 °FPassing clouds.7 mph94%30.04 "Hg4 mi
4:50 AM48 °FPassing clouds.6 mph94%30.04 "Hg4 mi
4:20 AM50 °FPassing clouds.7 mph94%30.04 "Hg4 mi
3:50 AM50 °FPartly cloudy.6 mph94%30.04 "Hg4 mi
3:20 AM50 °FPartly cloudy.7 mph94%30.04 "Hg4 mi
2:50 AM50 °FPassing clouds.8 mph94%30.04 "Hg4 mi
2:20 AM50 °FPassing clouds.7 mph94%30.04 "Hg4 mi
1:50 AM50 °FPassing clouds.7 mph94%30.04 "Hg4 mi
1:20 AM50 °FPassing clouds.3 mph94%30.04 "Hg4 mi
12:50 AM48 °FPassing clouds.3 mph94%30.04 "Hg4 mi
12:20 AM48 °FPassing clouds.5 mph94%30.04 "HgN/A
11:50 PM
Aug 31
48 °FClear.5 mph94%30.04 "Hg10 mi
11:20 PM48 °FClear.3 mph94%30.04 "Hg10 mi
10:50 PM50 °FClear.5 mph88%30.04 "Hg10 mi
10:20 PM50 °FClear.5 mph88%30.04 "Hg10 mi
9:50 PM50 °FClear.5 mph88%30.04 "Hg10 mi
9:20 PM50 °FPassing clouds.5 mph88%30.04 "HgN/A
8:50 PM52 °FPartly sunny.6 mph82%30.04 "HgN/A
8:20 PM52 °FPartly sunny.7 mph88%30.04 "HgN/A
7:50 PM54 °FPartly sunny.7 mph82%30.04 "HgN/A
7:20 PM55 °FBroken clouds.9 mph77%30.04 "HgN/A
6:50 PM55 °FBroken clouds.12 mph77%30.04 "HgN/A
6:20 PM57 °FBroken clouds.9 mph77%30.04 "HgN/A
5:50 PM57 °FBroken clouds.10 mph77%30.04 "HgN/A
5:20 PM59 °FPartly sunny.12 mph72%30.04 "HgN/A
4:50 PM57 °FPartly sunny.12 mph72%30.04 "HgN/A
4:20 PM59 °FPartly sunny.12 mph72%30.04 "HgN/A
3:50 PM59 °FPartly sunny.10 mph72%30.04 "HgN/A
3:20 PM57 °FPartly sunny.9 mph77%30.04 "HgN/A
2:50 PM57 °FPartly sunny.12 mph82%30.04 "HgN/A
2:20 PM59 °FBroken clouds.10 mph77%30.04 "HgN/A
Weather by CustomWeather, © 2014

See weather overviewHow to use our weather pages